Regional Weather Roundup
Issued by NWS Cleveland, OH

Home | Current Version | Previous Version | Graphics & Text | Print | Product List | Glossary On
Versions: 1 2 3 4 5 6 7 8 9 10 11 12 13 14 15 16 17 18 19 20 21 22 23 24 25 26 27 28 29 30 31 32 33 34 35 36 37 38 39 40 41 42 43 44 45 46 47 48 49 50
589
ASUS41 KCLE 052102
RWRCLE
OHIO REGIONAL WEATHER ROUNDUP
NATIONAL WEATHER SERVICE CLEVELAND, OH
500 PM EDT THU MAY 05 2016

NOTE: "FAIR" INDICATES FEW OR NO CLOUDS BELOW 12,000 FEET WITH NO
SIGNIFICANT WEATHER AND/OR OBSTRUCTIONS TO VISIBILITY.

OHZ001>008-015>018-024>027-034-035-043-044-052200-
   NORTHWEST OHIO

CITY           SKY/WX    TMP DP  RH WIND       PRES   REMARKS
DEFIANCE       PTSUNNY   68  39  34 N13G25    29.85S
FINDLAY        SUNNY     65  38  36 N18G28    29.82F
TOLEDO EXPRESS CLOUDY    64  40  41 N14G22    29.84S
TOLEDO EXEC    CLOUDY    63  38  39 NE12      29.85S
LIMA           CLOUDY    60  42  51 N10       29.83S
$$

OHZ009>014-019>023-028>033-038-089-052200-
   NORTHEAST OHIO

CITY           SKY/WX    TMP DP  RH WIND       PRES   REMARKS
CLE-HOPKINS    MOSUNNY   59  45  59 NE16      29.82F
CLE-LAKEFRONT  SUNNY     55  48  77 N10       29.80S
CUY CO. ARPT   PTSUNNY   57  48  72 NE14G23   29.80S
LORAIN-ELYRIA  MOSUNNY   58  45  62 N15       29.82S
ASHTABULA      PTSUNNY   56  45  66 NE10G23   29.79S
AKRON-CANTON   MOSUNNY   60  44  55 N18G26    29.75R
WOOSTER        SUNNY     59  45  59 N17G28    29.78S
MANSFIELD      PTSUNNY   59  46  62 N16G25    29.80F
YOUNGSTOWN     PTSUNNY   59  46  62 N22G29    29.74R
$$

OHZ042-051>053-060>062-070>072-077>081-052200-
  SOUTHWEST OHIO

CITY           SKY/WX    TMP DP  RH WIND       PRES   REMARKS
CINC-COVINGTON CLOUDY    54  46  74 W7        29.86F
CINC-LUNKEN    CLOUDY    53  46  77 W6        29.87S
HAMILTON       MOSUNNY   60  49  66 N8        29.86F
DAYTON         PTSUNNY   62  42  47 NE22      29.85S
WRIGHT-PAT AFB PTSUNNY   61  44  54 N15       29.83S
DAYTON GENERAL PTSUNNY   58  45  62 N10       29.83F
WILMINGTON     CLOUDY    54  47  77 N9        29.83S
$$

OHZ036-037-039>041-045>050-054>059-063>069-073>076-082>088-052200-
  CENTRAL AND SOUTHEAST OHIO

CITY           SKY/WX    TMP DP  RH WIND       PRES   REMARKS
COLUMBUS       PTSUNNY   60  45  57 N23G29    29.78F
OSU AIRPORT    PTSUNNY   58  46  64 N17       29.80S
BOLTON FIELD   PTSUNNY   57  46  67 N18       29.80F
RICKENBACK AFB CLOUDY    59  47  66 N17       29.78F
NEWARK         PTSUNNY   62  44  51 N15G24    29.76S
MARION         MOSUNNY   59  45  59 N23G32    29.82F
LANCASTER      PTSUNNY   59  48  67 N10       29.77F
ZANESVILLE     CLOUDY    58  51  78 NW8       29.74S
NEW PHILLY     LGT RAIN  56  49  77 NW8       29.74S
$$




USA.gov is the U.S. government's official web portal to all federal, state and local government web resources and services.